Location: Colossi of Memnon
(25.7167°N, 32.6167°E)
Time: 12:02:30
(UTC+00:00)

Meteor 1-26 Rocket - Pass Details

Date: 05 March 2021
Orbit: 807 x 928 km, 81.3° (Epoch: 09 April)

Event Time Altitude Azimuth Distance (km) Brightness Sun altitude
Rises 03:24:21 0° 198° (SSW) 3,358 7.1 -10.9°
Reaches altitude 10° 03:26:46 10° 203° (SSW) 2,443 6.4 -10.3°
Maximum altitude 03:32:08 51° 279° (W) 1,066 4.4 -9.1°
Drops below altitude 10° 03:37:43 10° 355° (N) 2,531 6.6 -7.8°
Sets 03:40:16 0° 0° (N) 3,491 7.4 -7.3°
